When you browse on this site, cookies collect data to enhance your experience and personalize the content and advertising you see.
Visit our Privacy Policy to learn more. By continuing to use the site, you agree to this use of cookies and data.
  • In Deutschland
  • Länderverzeichnis
  • Für 7 Tage
  • Wassertemperatur
  • Satellitenkarten
  • Wetterkarte
  • Widgets
  • user-avatar
    Anmelden

    Stündliche Wetter Ondjiwa

    Heute, 19 Juni, Mittwoch

    Zeit Temperatur Niederschläge Wind Luftdruck Luftfeuchtigkeit
    00:00 +13°C° 0 mm 3 m/S 670 mmHg 43%
    01:00 +12°C° 0 mm 3 m/S 670 mmHg 44%
    02:00 +11°C° 0 mm 3 m/S 670 mmHg 46%
    03:00 +11°C° 0 mm 3 m/S 670 mmHg 48%
    04:00 +10°C° 0 mm 3 m/S 670 mmHg 50%
    05:00 +10°C° 0 mm 3 m/S 670 mmHg 51%
    06:00 +9°C° 0 mm 3 m/S 670 mmHg 52%
    07:00 +9°C° 0 mm 3 m/S 671 mmHg 53%
    08:00 +13°C° 0 mm 4 m/S 672 mmHg 44%
    09:00 +17°C° 0 mm 5 m/S 672 mmHg 34%
    10:00 +22°C° 0 mm 6 m/S 673 mmHg 24%
    11:00 +25°C° 0 mm 5 m/S 673 mmHg 21%
    12:00 +27°C° 0 mm 5 m/S 672 mmHg 18%
    13:00 +29°C° 0 mm 5 m/S 672 mmHg 16%
    14:00 +29°C° 0 mm 4 m/S 671 mmHg 16%
    15:00 +29°C° 0 mm 4 m/S 671 mmHg 16%
    16:00 +29°C° 0 mm 3 m/S 671 mmHg 16%
    17:00 +25°C° 0 mm 3 m/S 670 mmHg 21%
    18:00 +21°C° 0 mm 2 m/S 670 mmHg 25%
    19:00 +19°C° 0 mm 1 m/S 670 mmHg 30%
    20:00 +17°C° 0 mm 2 m/S 670 mmHg 32%
    21:00 +16°C° 0 mm 2 m/S 670 mmHg 34%
    22:00 +15°C° 0 mm 2 m/S 670 mmHg 37%
    23:00 +14°C° 0 mm 2 m/S 670 mmHg 38%

    Morgen, 20 Juni, Donnerstag

    Zeit Temperatur Niederschläge Wind Luftdruck Luftfeuchtigkeit
    00:00 +14°C° 0 mm 2 m/S 670 mmHg 40%
    01:00 +13°C° 0 mm 2 m/S 670 mmHg 42%
    02:00 +12°C° 0 mm 2 m/S 670 mmHg 45%
    03:00 +12°C° 0 mm 2 m/S 670 mmHg 48%
    04:00 +10°C° 0 mm 2 m/S 669 mmHg 51%
    05:00 +10°C° 0 mm 2 m/S 670 mmHg 52%
    06:00 +9°C° 0 mm 3 m/S 670 mmHg 52%
    07:00 +9°C° 0 mm 3 m/S 671 mmHg 53%
    08:00 +13°C° 0 mm 3 m/S 672 mmHg 43%
    09:00 +19°C° 0 mm 4 m/S 673 mmHg 33%
    10:00 +23°C° 0 mm 5 m/S 674 mmHg 23%
    11:00 +26°C° 0 mm 5 m/S 673 mmHg 21%
    12:00 +27°C° 0 mm 4 m/S 672 mmHg 19%
    13:00 +29°C° 0 mm 4 m/S 672 mmHg 16%
    14:00 +29°C° 0 mm 4 m/S 671 mmHg 16%
    15:00 +29°C° 0 mm 3 m/S 671 mmHg 16%
    16:00 +29°C° 0 mm 3 m/S 670 mmHg 16%
    17:00 +26°C° 0 mm 2 m/S 670 mmHg 20%
    18:00 +23°C° 0 mm 2 m/S 670 mmHg 24%
    19:00 +18°C° 0 mm 2 m/S 670 mmHg 29%
    20:00 +17°C° 0 mm 2 m/S 670 mmHg 31%
    21:00 +16°C° 0 mm 2 m/S 670 mmHg 34%
    22:00 +15°C° 0 mm 2 m/S 670 mmHg 37%
    23:00 +15°C° 0 mm 2 m/S 670 mmHg 40%

    übermorgen, 21 Juni, Freitag

    Zeit Temperatur Niederschläge Wind Luftdruck Luftfeuchtigkeit
    00:00 +14°C° 0 mm 2 m/S 670 mmHg 42%
    01:00 +13°C° 0 mm 3 m/S 670 mmHg 45%
    02:00 +12°C° 0 mm 3 m/S 669 mmHg 48%
    03:00 +11°C° 0 mm 3 m/S 669 mmHg 51%
    04:00 +11°C° 0 mm 3 m/S 669 mmHg 54%
    05:00 +10°C° 0 mm 3 m/S 670 mmHg 55%
    06:00 +10°C° 0 mm 3 m/S 670 mmHg 57%
    07:00 +10°C° 0 mm 3 m/S 670 mmHg 58%
    08:00 +14°C° 0 mm 4 m/S 671 mmHg 47%
    09:00 +19°C° 0 mm 4 m/S 672 mmHg 36%
    10:00 +23°C° 0 mm 5 m/S 673 mmHg 25%
    11:00 +26°C° 0 mm 4 m/S 673 mmHg 22%
    12:00 +28°C° 0 mm 4 m/S 672 mmHg 20%
    13:00 +29°C° 0 mm 3 m/S 672 mmHg 17%
    14:00 +30°C° 0 mm 3 m/S 671 mmHg 16%
    15:00 +30°C° 0 mm 3 m/S 670 mmHg 15%
    16:00 +30°C° 0 mm 3 m/S 670 mmHg 15%
    17:00 +26°C° 0 mm 2 m/S 669 mmHg 19%
    18:00 +23°C° 0 mm 2 m/S 669 mmHg 23%
    19:00 +19°C° 0 mm 2 m/S 669 mmHg 27%
    20:00 +18°C° 0 mm 2 m/S 669 mmHg 28%
    21:00 +16°C° 0 mm 2 m/S 669 mmHg 30%
    22:00 +15°C° 0 mm 1 m/S 669 mmHg 32%
    23:00 +14°C° 0 mm 2 m/S 669 mmHg 33%

    22 Juni, Samstag

    Zeit Temperatur Niederschläge Wind Luftdruck Luftfeuchtigkeit
    00:00 +14°C° 0 mm 2 m/S 668 mmHg 34%
    01:00 +13°C° 0 mm 2 m/S 668 mmHg 35%
    02:00 +12°C° 0 mm 2 m/S 668 mmHg 35%
    03:00 +12°C° 0 mm 2 m/S 668 mmHg 37%
    04:00 +10°C° 0 mm 2 m/S 668 mmHg 39%
    05:00 +10°C° 0 mm 2 m/S 668 mmHg 40%
    06:00 +9°C° 0 mm 2 m/S 669 mmHg 41%
    07:00 +9°C° 0 mm 2 m/S 669 mmHg 41%
    08:00 +13°C° 0 mm 3 m/S 670 mmHg 34%
    09:00 +19°C° 0 mm 3 m/S 671 mmHg 26%
    10:00 +24°C° 0 mm 3 m/S 672 mmHg 19%
    11:00 +26°C° 0 mm 3 m/S 671 mmHg 17%
    12:00 +28°C° 0 mm 3 m/S 671 mmHg 14%
    13:00 +30°C° 0 mm 2 m/S 670 mmHg 12%
    14:00 +30°C° 0 mm 2 m/S 670 mmHg 12%
    15:00 +30°C° 0 mm 2 m/S 669 mmHg 11%
    16:00 +30°C° 0 mm 1 m/S 669 mmHg 10%
    17:00 +26°C° 0 mm 1 m/S 668 mmHg 13%
    18:00 +23°C° 0 mm 2 m/S 668 mmHg 16%
    19:00 +18°C° 0 mm 2 m/S 668 mmHg 19%
    20:00 +17°C° 0 mm 2 m/S 668 mmHg 20%
    21:00 +16°C° 0 mm 1 m/S 668 mmHg 21%
    22:00 +15°C° 0 mm 1 m/S 668 mmHg 22%
    23:00 +14°C° 0 mm 2 m/S 668 mmHg 23%

    23 Juni, Sonntag

    Zeit Temperatur Niederschläge Wind Luftdruck Luftfeuchtigkeit
    00:00 +13°C° 0 mm 2 m/S 667 mmHg 23%
    01:00 +13°C° 0 mm 2 m/S 667 mmHg 24%
    02:00 +12°C° 0 mm 2 m/S 667 mmHg 25%
    03:00 +10°C° 0 mm 2 m/S 667 mmHg 25%
    04:00 +10°C° 0 mm 2 m/S 667 mmHg 26%
    05:00 +9°C° 0 mm 2 m/S 667 mmHg 27%
    06:00 +9°C° 0 mm 2 m/S 668 mmHg 29%
    07:00 +8°C° 0 mm 2 m/S 668 mmHg 30%
    08:00 +13°C° 0 mm 2 m/S 669 mmHg 25%
    09:00 +18°C° 0 mm 3 m/S 670 mmHg 20%
    10:00 +22°C° 0 mm 3 m/S 671 mmHg 15%
    11:00 +25°C° 0 mm 3 m/S 671 mmHg 13%
    12:00 +27°C° 0 mm 3 m/S 670 mmHg 12%
    13:00 +30°C° 0 mm 2 m/S 670 mmHg 10%
    14:00 +30°C° 0 mm 2 m/S 670 mmHg 10%
    15:00 +30°C° 0 mm 2 m/S 669 mmHg 10%
    16:00 +30°C° 0 mm 1 m/S 669 mmHg 10%
    17:00 +26°C° 0 mm 1 m/S 668 mmHg 13%
    18:00 +23°C° 0 mm 2 m/S 668 mmHg 16%
    19:00 +18°C° 0 mm 2 m/S 667 mmHg 19%
    20:00 +17°C° 0 mm 2 m/S 668 mmHg 20%
    21:00 +16°C° 0 mm 2 m/S 668 mmHg 21%
    22:00 +15°C° 0 mm 2 m/S 668 mmHg 22%
    23:00 +15°C° 0 mm 2 m/S 668 mmHg 24%

    24 Juni, Montag

    Zeit Temperatur Niederschläge Wind Luftdruck Luftfeuchtigkeit
    00:00 +14°C° 0 mm 2 m/S 668 mmHg 25%
    01:00 +13°C° 0 mm 2 m/S 667 mmHg 26%
    02:00 +12°C° 0 mm 2 m/S 667 mmHg 28%
    03:00 +10°C° 0 mm 2 m/S 667 mmHg 31%
    04:00 +9°C° 0 mm 2 m/S 667 mmHg 33%
    05:00 +9°C° 0 mm 2 m/S 668 mmHg 35%
    06:00 +10°C° 0 mm 1 m/S 668 mmHg 36%
    07:00 +9°C° 0 mm 1 m/S 669 mmHg 38%
    08:00 +14°C° 0 mm 2 m/S 670 mmHg 31%
    09:00 +18°C° 0 mm 3 m/S 671 mmHg 25%
    10:00 +22°C° 0 mm 4 m/S 672 mmHg 19%
    11:00 +25°C° 0 mm 4 m/S 671 mmHg 17%
    12:00 +27°C° 0 mm 3 m/S 671 mmHg 14%
    13:00 +30°C° 0 mm 3 m/S 670 mmHg 12%
    14:00 +30°C° 0 mm 3 m/S 670 mmHg 12%
    15:00 +30°C° 0 mm 2 m/S 669 mmHg 12%
    16:00 +30°C° 0 mm 2 m/S 669 mmHg 11%
    17:00 +26°C° 0 mm 2 m/S 668 mmHg 14%
    18:00 +23°C° 0 mm 2 m/S 668 mmHg 18%
    19:00 +19°C° 0 mm 2 m/S 667 mmHg 21%
    20:00 +18°C° 0 mm 2 m/S 668 mmHg 22%
    21:00 +17°C° 0 mm 2 m/S 668 mmHg 23%
    22:00 +15°C° 0 mm 2 m/S 668 mmHg 24%
    23:00 +15°C° 0 mm 2 m/S 668 mmHg 25%
    Mehr zeigen